EHI
3 10 23 31 22 6 0 0 0 0 0 0 0 0 0 0 0 0 0 1 1 1 0 0 0 0 0 0 0 0 0 0 0 0 0 0 0 0 0 0 0 0 0 0 0 0 0 0 0
6 14 24 24 13 3 0 0 0 0 0 0 0 0 0 0 0 0 0 0 1 2 2 1 0 0 0 0 0 0 0 0 0 0 0 0 0 0 0 0 0 0 0 0 0 0 0 0 0
11 17 21 14 5 0 0 0 0 0 0 0 0 0 0 0 0 0 0 1 2 4 4 1 0 0 0 0 0 0 0 0 0 0 0 0 0 0 0 0 0 0 0 0 0 0 0 0 0
14 16 13 6 1 0 0 0 0 0 0 0 0 0 0 0 0 0 0 2 5 7 4 1 0 0 0 0 0 0 0 0 0 0 0 0 0 0 0 0 0 0 0 0 0 0 0 0 0
12 10 6 2 0 0 0 0 0 0 0 0 0 0 0 0 0 0 1 3 8 8 3 0 0 1 0 0 0 0 0 0 0 0 0 0 0 0 0 0 0 0 0 0 0 0 0 0 0
7 5 2 0 0 0 0 0 0 0 0 0 0 0 0 0 0 1 2 4 7 7 3 0 0 0 0 0 0 0 0 0 0 0 0 0 0 0 0 0 0 0 0 0 0 0 0 0 0
2 1 0 0 0 0 0 0 0 0 0 0 1 1 0 0 0 1 2 3 4 5 3 2 2 1 0 0 0 0 0 0 0 0 0 0 0 0 0 0 0 0 0 0 0 0 0 0 0
1 0 0 0 0 0 0 0 0 0 0 0 1 2 1 0 0 1 3 4 4 4 5 5 4 3 2 1 0 0 0 0 0 1 1 1 0 0 0 0 0 0 0 0 0 0 0 0 1
0 0 0 0 0 0 0 0 0 0 0 1 3 4 2 1 1 2 3 4 4 5 6 6 5 4 3 2 1 0 1 1 2 3 4 4 3 2 1 1 0 0 0 0 1 2 2 2 2
0 0 0 0 0 0 0 0 0 0 1 4 7 7 4 2 2 3 4 4 5 6 7 6 5 3 2 2 1 1 4 5 5 4 6 6 5 3 3 3 2 2 2 2 4 5 4 3 3
0 0 0 0 0 0 0 0 0 0 2 6 9 9 7 5 3 3 5 6 6 5 6 6 4 3 2 1 2 3 7 9 6 4 4 4 4 3 5 5 5 5 5 5 7 7 5 2 1
0 0 0 0 0 0 0 0 0 0 2 6 10 10 8 7 5 4 6 8 6 5 6 6 5 3 3 3 3 4 8 9 6 4 3 3 3 4 6 7 7 6 5 5 6 5 4 2 2
0 0 0 0 0 0 0 0 0 1 3 7 10 9 8 8 9 9 10 10 7 6 7 7 7 6 5 5 5 6 9 10 8 6 5 4 5 6 7 8 9 6 4 4 4 5 5 5 5
0 0 0 0 0 0 0 0 1 2 5 8 9 7 8 10 14 17 18 15 10 7 9 11 11 9 7 5 5 6 8 10 9 10 9 7 7 7 7 9 9 7 4 4 6 6 5 5 6
0 0 0 0 0 0 0 0 1 3 5 9 9 9 12 15 18 23 26 21 13 11 15 16 14 12 10 5 2 3 6 7 9 13 14 10 7 6 7 7 8 7 6 6 7 6 4 5 6
0 0 0 0 0 0 0 0 0 2 5 9 12 14 19 22 24 28 31 26 21 21 24 19 15 15 14 8 3 3 5 6 9 13 15 10 6 6 7 7 7 6 7 6 5 4 4 6 7
0 0 0 0 0 0 0 0 0 1 5 11 16 21 26 30 33 37 37 33 32 35 34 24 18 18 18 13 7 6 6 7 10 15 14 9 5 6 8 9 9 8 7 5 3 3 6 7 8
0 0 0 0 0 0 0 0 0 0 5 14 22 28 34 38 43 47 46 43 44 47 45 35 28 25 22 16 11 8 8 9 12 18 19 13 8 8 10 12 13 12 8 5 4 4 7 8 7
0 0 0 0 0 0 0 1 1 1 4 14 25 35 42 48 54 58 58 57 58 59 57 49 42 37 29 22 16 13 11 12 15 23 27 23 17 15 16 17 18 16 11 8 6 8 9 6 4
0 0 0 0 0 0 0 2 4 4 4 10 23 34 46 57 67 72 71 69 71 71 67 60 53 46 37 30 24 18 15 15 20 29 36 33 28 25 23 22 21 18 14 11 10 12 11 5 2
0 0 0 0 0 0 0 2 5 6 5 8 17 29 43 59 73 78 78 76 76 76 72 64 58 53 44 36 29 23 21 21 27 37 40 37 33 31 28 26 23 20 15 11 12 13 12 7 5
0 0 0 0 0 0 0 1 3 6 6 9 16 27 39 54 70 78 80 78 76 74 70 66 64 60 53 43 34 30 29 28 32 39 41 38 35 33 32 31 30 25 18 13 12 12 13 10 7
0 0 0 0 0 0 0 0 1 3 6 10 20 30 38 49 65 75 80 80 75 70 68 69 70 68 61 52 43 37 33 31 34 41 45 42 39 35 35 38 37 31 24 18 14 13 13 12 9
0 0 0 0 0 0 0 1 2 3 5 11 19 29 37 46 58 70 78 81 77 71 67 69 72 72 67 60 51 43 38 36 39 44 46 43 41 38 36 39 41 35 29 24 19 14 14 12 10
0 0 0 0 0 0 0 2 4 6 7 10 14 21 31 41 52 63 72 79 78 72 68 70 73 73 70 66 59 52 48 45 44 44 43 42 40 38 37 40 42 38 31 26 21 18 17 15 12
0 0 0 0 0 0 0 3 7 8 9 10 11 14 21 34 46 55 64 72 73 71 71 74 76 74 72 69 65 60 55 51 46 44 42 41 38 37 40 44 44 39 31 25 22 22 22 19 16
0 0 0 0 0 0 1 5 8 9 10 11 10 10 14 25 38 49 57 64 66 67 70 75 78 77 74 71 68 64 61 55 48 46 44 41 37 36 40 43 41 37 31 27 25 24 23 20 17
0 0 0 0 0 0 1 4 6 10 12 13 12 11 14 22 33 45 56 60 63 65 69 75 77 77 74 71 67 63 61 56 49 47 47 44 40 37 37 37 36 33 30 29 28 25 22 20 18
0 0 0 0 0 0 0 1 5 10 14 17 18 18 20 24 31 44 55 61 65 69 73 75 75 73 72 69 65 60 57 53 49 48 49 47 43 39 35 35 35 33 29 27 28 25 22 21 20
0 0 0 0 0 0 0 0 3 9 13 19 24 24 25 28 32 42 55 62 67 72 75 75 72 70 70 68 63 57 54 52 50 50 50 47 44 40 36 35 37 35 30 27 27 25 22 22 22
Wind_Speed
8 10 9 7 2 7 16 16 16 15 17 16 17 16 19 18 14 13 10 14 16 15 15 15 14 14 14 14 14 15 15 15 16 16 15 15 16 16 16 16 17 17 17 17 16 16 16 15 14
10 12 9 4 4 11 15 14 15 15 15 16 19 20 20 19 17 15 13 13 15 16 15 14 15 15 14 14 14 14 15 15 15 15 15 15 15 15 16 16 16 16 16 16 16 16 15 14 13
12 15 5 3 12 14 15 14 13 13 14 17 18 18 15 14 15 13 13 14 16 17 16 14 15 15 15 14 14 14 15 15 15 15 15 15 15 15 15 15 15 15 15 15 15 14 14 12 11
9 7 2 9 17 16 15 13 13 14 14 15 15 14 15 15 15 15 15 15 17 17 16 15 15 15 14 14 14 14 14 14 14 14 14 14 14 14 14 15 14 14 14 14 14 13 12 10 9
9 3 7 13 17 16 14 14 14 15 16 19 19 18 17 16 16 16 14 15 16 17 16 15 15 15 14 14 14 14 13 13 13 13 13 13 13 13 14 14 13 13 13 12 12 12 11 9 7
5 1 7 13 16 15 14 14 15 16 17 19 19 19 15 14 13 13 13 13 15 17 16 14 15 15 14 14 13 13 13 13 13 13 12 12 12 12 13 13 13 12 12 11 11 11 10 8 5
3 3 10 14 15 15 14 14 15 14 14 16 18 17 14 12 12 13 12 13 14 16 15 13 13 12 13 13 13 13 12 12 12 11 11 11 12 11 12 11 11 11 11 10 10 9 8 6 3
1 4 10 13 15 15 14 15 15 15 13 13 14 13 14 13 13 13 12 12 12 12 12 13 12 11 11 11 12 12 12 11 10 10 10 10 10 11 11 10 9 10 9 9 8 7 6 5 2
2 4 9 13 14 14 14 15 16 14 14 15 17 18 18 16 15 13 12 12 10 10 9 11 11 10 10 11 11 11 11 9 9 8 9 8 6 7 7 10 9 9 8 7 7 6 5 3 3
4 7 11 13 14 14 13 13 14 14 16 17 18 18 17 15 14 12 11 11 10 9 9 8 8 8 9 9 8 6 6 6 4 4 6 4 3 4 8 9 9 8 7 6 6 5 5 5 3
8 10 10 13 14 13 12 11 11 13 15 17 18 18 16 14 12 10 10 11 10 8 8 9 7 4 6 6 5 3 4 3 4 4 4 3 3 4 6 5 6 5 7 5 5 6 4 3 2
7 9 9 11 11 11 11 12 14 16 16 18 18 17 15 14 12 11 10 11 9 8 9 8 8 5 3 4 4 4 4 3 3 3 2 3 1 2 2 2 3 4 3 2 3 2 2 1 1
5 8 10 9 9 10 11 12 14 17 18 18 18 16 14 13 12 11 11 12 10 8 9 8 6 6 4 3 0 3 3 3 4 2 2 2 2 2 2 1 0 1 2 2 1 1 1 1 1
4 6 8 9 10 9 8 9 12 17 17 17 16 14 13 13 13 12 11 11 10 9 10 9 7 6 4 2 1 1 3 2 3 2 3 2 2 2 2 1 0 0 1 1 1 1 1 0 0
3 4 7 8 10 10 8 6 11 15 16 15 14 12 12 12 11 12 11 10 10 9 9 9 8 7 5 3 3 2 2 3 3 3 3 2 2 2 1 1 1 0 0 1 1 0 1 1 1
7 6 6 7 8 10 7 7 13 14 14 14 13 13 12 11 11 11 12 10 9 9 8 7 8 9 6 3 2 1 1 2 2 3 3 3 2 2 1 1 1 1 1 1 1 1 1 1 1
9 8 7 7 6 7 7 8 13 13 14 14 12 12 12 12 11 12 12 11 10 9 8 6 6 8 7 5 3 2 1 1 2 2 3 3 3 3 2 1 0 1 1 1 2 1 1 1 2
7 8 8 7 7 6 8 8 12 13 12 14 14 13 12 12 12 12 12 11 10 9 8 6 6 6 6 4 3 2 2 2 2 2 3 4 3 3 2 1 1 2 1 1 1 1 1 2 2
6 5 5 5 6 4 7 9 11 11 10 12 13 14 13 12 13 12 12 12 11 9 8 7 6 6 4 3 4 3 3 3 2 3 4 4 4 3 2 1 2 2 1 1 2 1 2 3 2
8 7 5 4 6 5 4 7 10 10 10 11 12 13 14 14 14 13 12 12 11 10 9 8 7 7 6 4 3 3 3 3 3 2 3 4 4 4 4 3 2 2 2 1 2 2 2 2 1
10 9 7 5 7 8 6 6 9 10 10 10 11 12 14 15 15 14 13 12 12 11 11 9 7 7 6 5 3 3 2 2 2 2 3 4 4 4 3 3 3 2 2 2 2 2 3 3 2
9 8 7 7 7 7 8 5 7 9 10 11 10 11 12 14 15 15 14 12 12 12 11 8 8 7 6 5 4 4 4 3 3 2 2 3 3 3 3 3 3 3 2 1 3 3 2 2 2
8 5 8 9 9 9 7 5 4 8 8 10 11 11 11 13 15 15 15 13 12 12 11 9 8 7 6 5 5 4 3 3 2 2 3 3 3 3 3 3 3 3 2 2 2 1 2 2 2
7 8 9 10 10 10 8 6 4 5 7 8 10 11 11 12 13 14 14 13 12 12 11 10 9 7 7 6 5 4 4 2 2 2 2 2 2 2 3 3 3 3 2 2 2 2 2 2 3
10 9 7 9 9 8 8 7 4 5 5 5 7 10 11 10 11 11 12 13 12 12 11 10 10 8 7 6 5 4 3 3 2 2 2 2 2 2 3 3 3 3 3 2 2 2 2 2 2
13 14 10 7 7 7 9 6 5 6 6 6 5 6 8 10 11 11 13 13 12 12 11 10 10 8 7 7 5 4 3 3 2 2 2 1 1 1 2 3 2 2 2 2 2 1 1 1 1
13 14 14 11 10 8 6 7 7 7 7 7 6 5 6 8 10 10 11 13 12 12 11 10 10 8 8 6 5 4 3 2 2 1 1 1 1 1 1 2 2 2 2 1 1 1 0 0 0
14 13 10 9 7 9 7 8 7 11 9 7 6 5 5 8 9 9 9 10 10 9 8 8 9 8 7 6 5 5 4 3 1 1 1 0 1 1 1 1 1 1 1 1 1 1 0 1 1
15 15 11 8 8 9 6 2 4 9 9 8 7 6 6 6 7 8 8 9 10 9 9 8 7 8 7 6 5 3 3 3 2 1 1 1 1 1 1 1 0 1 1 1 1 1 1 1 1
15 15 13 9 7 7 7 2 4 7 8 8 7 7 6 6 6 7 8 8 8 9 8 8 7 7 6 6 5 3 3 3 2 2 1 2 1 1 1 1 1 1 1 1 1 1 1 1 1
Wind_Direction
252 239 232 243 217 73 67 66 71 72 68 62 62 66 59 54 72 89 106 102 102 100 103 99 93 93 91 89 89 88 87 86 86 86 86 87 88 89 90 90 92 93 94 94 94 93 93 93 95
265 252 236 241 78 77 70 69 71 73 77 76 73 76 73 73 85 99 105 105 106 105 101 96 97 95 93 91 90 89 89 88 87 86 86 87 88 90 91 92 91 92 93 94 94 94 94 94 96
258 254 261 81 67 74 79 78 80 81 84 83 76 68 69 84 90 103 115 114 106 101 100 100 98 96 95 93 91 90 90 90 88 87 87 88 89 91 93 94 93 92 92 94 95 96 96 96 95
261 236 133 78 75 73 81 90 92 89 84 86 86 78 73 88 99 112 120 115 112 108 104 103 101 98 96 95 93 92 92 91 90 89 90 89 91 93 94 94 94 93 93 95 96 97 98 97 94
243 257 92 82 80 79 80 86 87 86 83 81 86 91 89 93 106 115 118 115 111 109 110 109 105 102 101 99 97 95 95 95 95 94 93 93 94 96 96 96 95 94 95 96 97 97 97 97 92
265 201 88 87 85 85 86 90 92 91 96 101 102 101 100 111 116 117 112 111 112 112 112 115 111 110 107 104 102 101 99 98 98 98 98 98 97 97 98 98 96 96 98 98 99 100 98 98 93
263 68 93 95 91 86 85 87 87 89 94 101 109 108 114 119 113 112 113 110 109 115 122 125 124 119 114 110 109 108 106 105 106 107 108 107 106 105 104 101 101 101 102 103 103 104 105 107 106
256 82 90 95 95 91 90 88 90 88 84 100 116 114 127 130 127 121 113 109 110 114 123 127 129 132 131 121 119 118 118 118 121 122 123 123 122 121 119 112 108 108 109 110 112 114 117 122 143
347 79 89 97 101 105 104 98 98 99 91 75 85 111 126 133 128 124 120 116 109 108 113 121 130 143 138 129 130 134 134 136 139 142 146 150 154 140 135 111 121 120 121 125 131 136 142 156 201
70 73 80 95 103 108 107 110 118 111 102 95 98 111 126 133 130 132 132 126 120 121 122 119 126 137 131 126 138 151 145 150 168 147 161 175 149 128 118 128 139 142 143 150 166 173 186 208 205
78 85 85 92 100 107 110 111 113 109 111 116 122 129 136 134 134 136 130 120 121 129 126 125 119 105 117 127 144 136 126 146 148 138 151 145 135 136 134 153 155 166 172 184 176 197 214 210 212
88 87 82 86 96 101 101 97 90 89 101 119 128 135 140 145 143 139 131 125 132 134 122 119 119 107 82 94 122 141 141 143 128 151 163 132 120 119 127 148 164 168 172 178 176 197 202 215 251
104 104 104 99 97 90 91 93 98 102 108 119 131 140 149 148 142 138 137 133 136 135 127 117 120 115 99 75 67 123 121 124 133 136 119 125 129 108 106 110 128 162 152 162 185 171 154 179 266
112 121 121 121 108 102 97 106 110 115 120 128 136 147 153 143 145 141 140 135 144 148 134 133 134 123 120 134 105 93 119 121 127 126 131 132 107 107 110 124 265 148 124 114 181 174 163 198 274
194 176 141 135 132 123 120 120 120 124 131 138 145 151 147 145 148 146 143 145 152 146 134 138 142 138 151 163 192 156 152 151 134 127 130 134 127 128 143 169 208 184 174 161 199 255 207 216 210
218 209 168 154 147 136 137 138 130 138 145 147 153 152 147 147 157 149 145 151 147 143 140 152 153 145 154 172 208 168 147 128 142 154 151 158 152 173 196 203 192 187 226 194 199 230 253 259 244
211 209 190 166 158 153 151 149 142 152 156 153 154 154 153 155 161 152 153 157 151 143 144 153 144 146 159 169 177 196 148 144 170 166 158 168 182 188 202 215 98 250 250 237 252 143 259 276 274
221 202 191 166 163 174 153 147 152 161 161 156 160 161 159 162 164 157 156 155 150 146 147 155 154 150 159 165 174 206 191 191 198 175 171 171 189 194 201 196 180 258 255 267 298 309 283 275 270
259 246 198 162 151 203 171 159 157 162 164 158 162 161 164 164 162 159 160 157 154 151 153 163 166 158 164 174 181 195 191 204 204 193 176 182 195 194 208 224 178 234 249 261 273 255 257 251 252
253 250 230 184 156 217 207 174 160 163 170 164 163 165 166 164 163 162 163 161 159 158 160 166 173 169 180 185 189 201 201 218 205 190 168 193 196 199 209 201 217 212 218 231 266 272 273 274 250
244 245 243 216 180 202 210 210 175 169 171 163 166 170 168 167 167 166 167 167 167 167 169 176 178 173 187 183 193 211 193 237 212 180 185 203 202 207 227 185 216 228 229 215 236 254 262 271 282
238 245 253 249 236 223 207 214 188 180 176 170 172 171 170 167 168 168 171 173 173 171 172 171 170 173 181 184 200 208 204 218 216 189 186 195 199 211 207 202 210 222 242 213 235 221 245 256 264
243 252 255 254 257 259 224 226 202 181 187 179 175 172 174 169 169 171 174 174 175 175 173 170 166 172 177 188 201 211 221 221 211 185 180 186 196 210 215 201 198 211 235 236 252 253 247 249 256
237 244 248 252 254 250 241 233 201 184 179 179 174 172 174 174 171 170 172 169 175 175 174 172 169 174 176 187 198 206 225 230 243 194 175 194 201 204 213 207 198 206 228 236 245 251 254 251 258
220 229 226 223 229 237 236 234 177 171 161 153 162 167 174 173 167 167 168 168 173 175 174 172 168 175 178 185 197 200 216 224 243 230 211 216 206 204 206 213 205 211 222 227 232 240 260 260 262
211 229 236 237 232 222 219 215 172 149 128 120 125 141 155 164 165 168 171 170 177 177 173 170 166 170 176 184 193 197 200 217 227 225 234 219 232 214 186 191 198 201 215 225 201 228 236 237 249
214 227 244 251 262 257 218 185 175 155 150 152 153 152 155 156 158 164 170 167 176 175 171 172 163 164 172 180 182 187 191 204 217 190 217 260 277 253 125 157 176 184 191 206 159 155 207 138 198
237 230 238 250 262 263 237 208 184 166 166 165 156 157 155 152 155 153 154 156 163 163 158 159 155 159 164 171 180 178 177 185 193 151 159 31 29 17 64 83 121 133 158 155 153 142 156 134 113
220 230 236 248 255 262 265 269 137 151 156 158 155 139 130 135 141 138 139 143 144 142 144 143 146 150 157 165 166 168 163 161 163 165 146 134 108 84 68 87 107 136 145 152 151 153 150 144 107
227 230 228 234 245 265 270 228 117 128 141 144 137 125 118 122 122 121 122 130 135 137 142 145 148 150 151 148 145 147 137 142 150 144 124 115 113 98 80 68 79 102 114 134 144 168 151 129 127